Location: Brachbach
(49.1847°N, 9.7240°E)
Time: 20:17:45
(UTC+00:00)

Cosmos 2219 Rocket - Pass Details

Date: 20 August 2024
Orbit: 826 x 846 km, 71.0° (Epoch: 09 September)

Event Time Altitude Azimuth Distance (km) Brightness Sun altitude
Exits shadow 21:09:54 13° 77° (ENE) 2,248 4.2 -22.0°
Drops below altitude 10° 21:11:16 10° 64° (ENE) 2,477 4.5 -22.1°
Sets 21:14:47 0° 42° (NE) 3,418 5.5 -22.4°
